{"data":{"norad_id":58058,"intl_designator":"2023-158H","name":"STARLINK-30573","alt_names":[],"object_type":"PAYLOAD","status":"ACTIVE","operator":null,"country":"US","launch_date":"2023-10-13","launch_site_code":"AFETR","launch_vehicle":null,"mission":null,"orbit_class":"UNKNOWN","rcs_meters":null,"size_class":null,"mass_kg":null,"dimensions":null,"purposes":["comms"],"wikipedia_slug":null,"has_3d_model":false,"image_url":null,"decayed_at":null,"tle_current":{"epoch":"2026-09-20T18:07:31.971360Z","epoch_age_seconds":115633,"freshness":"FRESH","line1":"1 58058U 23158H   26263.75523115  .00001899  00000+0  78534-4 0  9990","line2":"2 58058  43.0041   5.3432 0001424 264.4611  95.6078 15.27578394163402","mean_motion":15.27578394,"eccentricity":0.0001424,"inclination_deg":43.0041,"raan_deg":5.3432,"arg_perigee_deg":264.4611,"mean_anomaly_deg":95.6078,"bstar":7.8534e-5,"rev_number":16340,"period_min":94.266847819792,"perigee_km":482.07687140075,"apogee_km":484.03093857049,"semimajor_km":6861.1909049856,"source":"CELESTRAK","updated_at":"2026-09-21T09:00:33.778338Z"}}}